Location: Gouy
(50.0008°N, 3.2556°E)
Time: 02:08:45
(UTC+00:00)

Cosmos 1455 - Pass Details

Date: 23 May 2024
Orbit: 445 x 460 km, 82.5° (Epoch: 16 June)

Event Time Altitude Azimuth Distance (km) Brightness Sun altitude
Rises 01:59:19 0° 339° (NNW) 2,461 6.2 -13.2°
Reaches altitude 10° 02:01:37 10° 325° (NW) 1,585 5.0 -13.0°
Maximum altitude 02:04:27 24° 270° (W) 966 3.3 -12.8°
Enters shadow 02:05:40 20° 238° (WSW) 1,102 3.3 -12.7°
